User: anonymous   Login
Location: Helsinki
(60.1699°N, 24.9384°E)
Time: 00:22:54
(UTC+02:00)
Language:

KKS-1 - Orbit

View from above orbital plane
View from above orbital plane
View from above satellite
View from above satellite

Ground track
Ground track

The orbit data is extracted from the following two-line orbital elements,

1 33499U 09002H   23332.57076770  .00003120  00000-0  44221-3 0  9993
2 33499  98.1544 226.8645 0010055  63.2133 297.0104 14.77735886798332
Epoch (UTC): 28 November 2023 13:41:54
Eccentricity: 0.0010055
inclination: 98.1544°
perigee height: 629 km
apogee height: 643 km
right ascension of ascending node: 226.8645°
argument of perigee: 63.2133°
revolutions per day: 14.77735886
mean anomaly at epoch: 297.0104°
orbit number at epoch: 79833

The dashed part of the orbit path shows where the satellite is in the earth's shadow,  

DLR